Hourly Data Report for May 12, 2021

WIARTON A
ONTARIO
Current Station Operator: NAVCAN

44°44'39.000" N
81°06'31.000" W
221.90 m
6119499
71633
YVV

Download Data

Hourly Data (May 2021)
Hourly Data Report for May 12, 2021
TIME
LST
Temp Definition
°C
Dew Point Definition
°C
Rel Hum Definition
%
Precip. Amount Definition
mm

Wind Dir Definition
10's deg

Wind Spd Definition
km/h
Visibility Definition
km
Stn Press Definition
kPa
Hmdx Definition


Wind Chill Definition


Weather Definition


00:00 6.3 2.4 76   36 4 24.1 99.78     LegendNANA
01:00 4.8 2.4 85   14 3 24.1 99.79     Mostly Cloudy
02:00 6.1 2.3 77   7 3 24.1 99.78     LegendNANA
03:00 5.7 2.0 77   13 5 24.1 99.82     LegendNANA
04:00 5.1 1.6 78   33 3 24.1 99.85     Clear
05:00 5.0 1.2 77   30 4 24.1 99.91     LegendNANA
06:00 5.0 1.1 75   25 4 24.1 99.99     LegendNANA
07:00 7.2 1.5 67   29 4 24.1 100.06     Clear
08:00 9.7 0.6 53   1 8 24.1 100.12     LegendNANA
09:00 11.2 -0.1 45   34 8 24.1 100.13     LegendNANA
10:00 13.2 -1.7 35   2 12 24.1 100.12     Clear
11:00 14.1 -2.6 31   34 10 24.1 100.12     LegendNANA
12:00 12.8 2.9 50   26 14 24.1 100.11     LegendNANA
13:00 13.5 -0.2 39   29 16 24.1 100.10     Clear
14:00 13.1 1.4 45   27 13 24.1 100.09     LegendNANA
15:00 13.4 1.0 43   27 13 24.1 100.08     LegendNANA
16:00 12.9 -1.2 37   28 15 24.1 100.04     Clear
17:00 12.8 -0.5 40   28 14 24.1 100.03     LegendNANA
18:00 11.8 -1.2 40   27 17 24.1 100.03     LegendNANA
19:00 10.5 -0.6 46   29 14 24.1 100.00     Clear
20:00 8.7 -0.2 53   28 7 24.1 100.02     LegendNANA
21:00 8.2 -0.3 55   28 5 24.1 100.02     LegendNANA
22:00 8.7 -1.0 50   29 10 24.1 100.03     Clear
23:00 5.9 0.3 67   21 10 24.1 100.02     LegendNANA

Notes on Data Quality.

Legend

  • E = Estimated
  • M = Missing
  • NA = Not Available*
  • [empty] = Indicates an unobserved value
Date modified: